{"data":{"norad_id":57793,"epoch":"2026-09-22T22:07:18.210720Z","epoch_age_seconds":96871,"freshness":"FRESH","line1":"1 57793U 23135B   26265.92173855  .00000043  00000+0  88945-4 0  9990","line2":"2 57793  49.9675 101.1838 0011822 242.8010 117.1698 14.23165297158542","mean_motion":14.23165297,"eccentricity":0.0011822,"inclination_deg":49.9675,"raan_deg":101.1838,"arg_perigee_deg":242.801,"mean_anomaly_deg":117.1698,"bstar":8.8945e-5,"rev_number":15854,"period_min":101.18290567058,"perigee_km":806.16452202502,"apogee_km":823.17118982637,"semimajor_km":7192.8048559257,"source":"CELESTRAK","updated_at":"2026-09-23T09:00:18.383196Z"}}